Abhaipura, India

1:29 AM IST on January 20, 2018 (GMT +0530)
Abhaipura

Weather History for 42348 - March, 2013

Change the Weather History Date:

Wednesday, March 6, 2013

  Actual Average Record
Temperature  
Mean Temperature 75 °F -  
Max Temperature 91 °F - - ()
Min Temperature 59 °F - - ()
Cooling Degree Days 10    
Growing Degree Days 25 (Base 50)    
Moisture  
Dew Point 41 °F    
Average Humidity 30    
Maximum Humidity 55    
Minimum Humidity 7    
Precipitation  
Precipitation 0.00 in - - ()
Sea Level Pressure  
Sea Level Pressure 30.03 in    
Wind  
Wind Speed 2 mph ()    
Max Wind Speed 9 mph    
Max Gust Speed -    
Visibility 2.3 miles    
Events      
T = Trace of Precipitation, MM = Missing Value Source: Averaged Metar Reports

Daily Weather History Graph

Daily Weather History Graph

Search for Another Location

Airport or City:

Trip Planner

Search our weather history database for the weather conditions in past years. The results will help you decide how hot, cold, wet, or windy it might be!

Date:

Astronomy

Mar. 06, 2013 Rise Set
Actual Time 6:45 AM IST 6:30 PM IST
Civil Twilight 6:22 AM IST 6:53 PM IST
Nautical Twilight 5:55 AM IST 7:20 PM IST
Astronomical Twilight 5:28 AM IST 7:47 PM IST
Moon 2:06 AM IST (3/6) 1:06 PM IST (3/6)
Length of Visible Light 12h 31m
Length of Day
11h 44m
Waning Crescent, 35% of the Moon is Illuminated
Mar 6
Waning Crescent
Mar 12
New
Mar 19
First Quarter
Mar 27
Full
Apr 3
Last Quarter

Hourly Weather History & Observations

Time (IST) Temp. Dew Point Humidity Pressure Visibility Wind Dir Wind Speed Gust Speed Precip Events Conditions
1:00 AM 69.8 °F 41.0 °F 35% 30.04 in 1.9 mi Calm Calm - N/A   Haze
2:00 AM 68.0 °F 42.8 °F 40% 30.04 in 1.9 mi Calm Calm - N/A   Haze
2:30 AM 68 °F 43 °F 29% 30.00 in 1 mi Calm Calm - -   Haze
2:30 AM 68.0 °F 42.8 °F 40% 30.04 in 1.9 mi Calm Calm - N/A   Haze
3:00 AM 68.0 °F 42.8 °F 40% 30.04 in 1.9 mi Calm Calm - N/A   Haze
4:00 AM 68.0 °F 42.8 °F 40% 30.04 in 1.9 mi Calm Calm - N/A   Haze
5:00 AM 62.6 °F 44.6 °F 52% 30.04 in 1.9 mi Calm Calm - N/A   Haze
5:30 AM 62 °F 46 °F 45% 29.98 in 1 mi Calm Calm - -   Haze
6:00 AM 60.8 °F 44.6 °F 55% 30.04 in 1.9 mi Calm Calm - N/A   Haze
7:00 AM 62.6 °F 44.6 °F 52% 30.06 in 1.9 mi Calm Calm - N/A   Haze
8:00 AM 66.2 °F 48.2 °F 52% 30.09 in 1.9 mi Calm Calm - N/A   Haze
8:30 AM 71 °F 49 °F 34% 30.05 in 1 mi Calm Calm - -   Haze
9:00 AM 77.0 °F 44.6 °F 32% 30.12 in 1.9 mi Calm Calm - N/A   Haze
10:30 AM 80.6 °F 44.6 °F 28% 30.12 in 3.1 mi SSW 4.6 mph - N/A   Haze
11:00 AM 82.4 °F 42.8 °F 25% 30.12 in 3.1 mi SW 5.8 mph - N/A   Haze
12:00 PM 82.4 °F 42.8 °F 25% 30.09 in 3.1 mi SW 6.9 mph - N/A   Haze
1:00 PM 86.0 °F 39.2 °F 19% 30.06 in 3.1 mi WSW 6.9 mph - N/A   Haze
2:00 PM 87.8 °F 33.8 °F 15% 30.04 in 3.1 mi Variable 6.9 mph - N/A   Haze
2:30 PM 89 °F 34 °F 7% 29.96 in 2 mi NW 6.9 mph - -   Haze
3:00 PM 89.6 °F 28.4 °F 11% 30.01 in 3.1 mi Variable 9.2 mph - N/A   Haze
4:00 PM 89.6 °F 30.2 °F 12% 30.01 in 3.7 mi Variable 8.1 mph - N/A   Unknown
5:00 PM 87.8 °F 32.0 °F 14% 30.01 in 3.7 mi Variable 5.8 mph - N/A   Unknown
5:30 PM 88 °F 41 °F 11% 29.91 in 2 mi SE 6.9 mph - -  
7:00 PM 82.4 °F 35.6 °F 19% 30.01 in 2.5 mi North 3.5 mph - N/A   Haze
8:00 PM 78.8 °F 37.4 °F 23% 30.04 in 2.5 mi Calm Calm - N/A   Haze
8:30 PM 78 °F 38 °F 14% 29.96 in 2 mi Calm Calm - -   Haze
9:00 PM 77.0 °F 44.6 °F 32% 30.04 in 2.5 mi NNE 3.5 mph - N/A   Haze
11:00 PM 73.4 °F 51.8 °F 47% 30.06 in 2.5 mi Variable 2.3 mph - N/A   Haze
11:30 PM 74 °F 49 °F 31% 29.99 in 2 mi Calm Calm - -   Haze